TimeEDT,TemperatureF,Dew PointF,Humidity,Sea Level PressureIn,VisibilityMPH,Wind Direction,Wind SpeedMPH,Gust SpeedMPH,PrecipitationIn,Events,Conditions,WindDirDegrees,DateUTC
12:58 AM,65.1,62.4,91,29.86,10.0,NNW,3.5,-,N/A,,Clear,330,2013-07-21 04:58:00
1:58 AM,62.6,60.3,92,29.88,10.0,NNE,6.9,-,N/A,,Clear,20,2013-07-21 05:58:00
2:58 AM,61.0,57.2,87,29.90,10.0,NNE,11.5,-,N/A,,Clear,30,2013-07-21 06:58:00
3:58 AM,59.2,54.5,84,29.92,10.0,NE,10.4,-,N/A,,Partly Cloudy,40,2013-07-21 07:58:00
4:58 AM,57.2,53.8,88,29.94,10.0,NE,5.8,-,N/A,,Clear,50,2013-07-21 08:58:00
5:28 AM,55.4,53.6,94,29.95,10.0,NE,4.6,-,N/A,,Mostly Cloudy,40,2013-07-21 09:28:00
5:58 AM,57.2,53.6,88,29.96,10.0,NE,6.9,-,N/A,,Mostly Cloudy,40,2013-07-21 09:58:00
6:58 AM,55.8,52.7,89,29.98,10.0,NE,5.8,-,N/A,,Scattered Clouds,40,2013-07-21 10:58:00
7:58 AM,58.6,52.0,79,30.00,10.0,NNE,11.5,-,N/A,,Partly Cloudy,30,2013-07-21 11:58:00
8:58 AM,61.5,53.2,74,30.01,10.0,NE,6.9,-,N/A,,Clear,50,2013-07-21 12:58:00
9:58 AM,63.1,54.7,74,30.01,10.0,NNE,8.1,-,N/A,,Clear,30,2013-07-21 13:58:00
10:58 AM,66.9,55.8,67,30.02,10.0,NNE,8.1,-,N/A,,Clear,30,2013-07-21 14:58:00
11:41 AM,69.8,57.2,64,30.02,10.0,NE,6.9,-,N/A,,Light Drizzle,50,2013-07-21 15:41:00
11:49 AM,69.8,55.4,60,30.02,10.0,NE,5.8,-,N/A,,Clear,40,2013-07-21 15:49:00
11:58 AM,70.3,56.3,61,30.02,10.0,NNE,6.9,-,0.00,,Clear,20,2013-07-21 15:58:00
12:58 PM,71.4,54.3,55,30.02,10.0,NNW,5.8,-,N/A,,Clear,340,2013-07-21 16:58:00
1:58 PM,72.9,54.7,53,30.02,10.0,NNE,8.1,-,N/A,,Clear,20,2013-07-21 17:58:00
2:11 PM,73.4,53.6,50,30.02,10.0,NNE,9.2,-,N/A,Rain,Light Rain,20,2013-07-21 18:11:00
2:14 PM,73.4,53.6,50,30.02,10.0,NNE,6.9,-,N/A,,Clear,30,2013-07-21 18:14:00
2:58 PM,72.9,54.3,52,30.01,10.0,Variable,6.9,-,0.00,,Clear,0,2013-07-21 18:58:00
3:50 PM,75.2,55.4,50,30.00,10.0,NNE,5.8,-,N/A,,Light Drizzle,30,2013-07-21 19:50:00
3:58 PM,74.5,55.9,52,30.00,10.0,NNE,4.6,-,0.00,,Light Drizzle,20,2013-07-21 19:58:00
4:01 PM,73.4,55.4,53,30.00,10.0,Variable,2.3,-,N/A,,Partly Cloudy,0,2013-07-21 20:01:00
4:58 PM,73.6,55.2,53,29.99,10.0,Variable,4.6,-,0.00,,Clear,0,2013-07-21 20:58:00
5:58 PM,72.5,55.9,56,29.99,10.0,North,5.8,-,N/A,,Clear,10,2013-07-21 21:58:00
6:58 PM,71.6,56.5,59,29.99,10.0,North,4.6,-,N/A,,Clear,360,2013-07-21 22:58:00
7:58 PM,68.5,57.4,67,29.99,10.0,Variable,4.6,-,N/A,,Clear,0,2013-07-21 23:58:00
8:58 PM,63.3,57.0,80,29.99,10.0,NNE,3.5,-,N/A,,Clear,30,2013-07-22 00:58:00
9:58 PM,59.7,55.6,86,30.01,10.0,NE,3.5,-,N/A,,Clear,50,2013-07-22 01:58:00
10:58 PM,62.2,56.1,80,30.02,10.0,ESE,5.8,-,N/A,,Clear,110,2013-07-22 02:58:00
11:58 PM,61.3,55.6,81,30.03,10.0,SE,6.9,-,N/A,,Clear,130,2013-07-22 03:58:00